Regional Weather Roundup
Issued by NWS

Home | Current Version | Previous Version | Text Only | Print | Product List | Glossary Off
Versions: 1 2 3 4 5 6 7 8 9 10 11 12 13 14 15 16 17 18 19 20 21 22 23 24 25 26 27 28 29 30 31 32 33 34 35 36 37 38 39 40 41 42 43 44 45 46 47 48 49 50

000
ASUS43 KIND 302209
RWRIN

WEATHER ROUNDUP FOR INDIANA
NATIONAL WEATHER SERVICE INDIANAPOLIS IN
500 PM EST FRI JAN 30 2015

NOTE: "FAIR" INDICATES FEW OR NO CLOUDS BELOW 12,000 FEET WITH NO
SIGNIFICANT WEATHER AND/OR OBSTRUCTIONS TO VISIBILITY.

* - STATION DOES NOT REPORT WEATHER SUCH AS PRECIPITATION OR FOG.

+ - STATION NOT QUALITY CONTROLLED BY THE NATIONAL WEATHER SERVICE.
    USE DATA WITH CAUTION...ESPECIALLY DEWPOINT AND RELATIVE
    HUMIDITY OBSERVATIONS.

INZ001>003-010>013-019-020-302300-
NORTHWEST INDIANA

CITY           SKY/WX    TMP DP  RH WIND       PRES   REMARKS
GARY /AIRPORT/ PTCLDY    28  10  47 NE6       30.46F WCI  22
KNOX *+        MOCLDY    28   0  29 NW6       30.45S WCI  22
LA PORTE +     PTCLDY    28  15  58 NW5       30.45F WCI  23
MICHIGAN CITY+ PTCLDY    27  10  50 CALM      30.46F
MONTICELLO +   PTCLDY    29  17  61 NW3       30.45F
RENSSELAER +   PTCLDY    30  18  59 CALM      30.45F
VALPARAISO     PTCLDY    28  13  53 CALM      30.45S

$$

LMZ046-743>745-302300-
SOUTHERN LAKE MICHIGAN

STATION/POSITION TIME  TEMP WIND        PRES
                       AIR  DIR/SP/G
                 (UTC) (F)  (DEG/KT/KT) (MB)
MICHIGAN CITY    2200   26  360/  3/  5   N/A

$$

INZ004-005-014>016-021>024-302300-
NORTH CENTRAL INDIANA

CITY           SKY/WX    TMP DP  RH WIND       PRES   REMARKS
ELKHART        CLOUDY    25  12  58 N7        30.44F WCI  17
GOSHEN         CLOUDY    24  14  65 NW6       30.44S WCI  17
LOGANSPORT +   PTCLDY    28  18  64 NW5       30.46S WCI  23
PERU/GRISSOM   CLOUDY    28  16  60 NW6       30.43F WCI  22
ROCHESTER +    CLOUDY    30  19  64 NW5       30.45S WCI  25
SOUTH BEND     CLOUDY    26  14  60 NW8       30.45S WCI  18
WARSAW +       CLOUDY    27  16  63 NW6       30.44F WCI  20

$$

INZ006>009-017-018-025>027-302300-
NORTHEAST INDIANA

CITY           SKY/WX    TMP DP  RH WIND       PRES   REMARKS
ANGOLA *+      CLEAR     25   9  50 VRB5      30.41F WCI  19
AUBURN +       CLEAR     27  10  50 W8        30.43F WCI  18
FORT WAYNE     MOCLDY    25  13  60 NW6       30.45S WCI  18
HUNTINGTON +   CLOUDY    25  11  55 W7        30.44F WCI  17

$$

INZ028-029-035-036-043>045-051>053-302300-
WEST CENTRAL INDIANA

CITY           SKY/WX    TMP DP  RH WIND       PRES   REMARKS
GREENCASTLE +  SUNNY     32  12  43 N7        30.45F WCI  26
LAFAYETTE      PTCLDY    29  16  58 N5        30.46F WCI  24
TERRE HAUTE    SUNNY     35  15  44 N5        30.46S WCI  31

$$

INZ030>032-037>040-046>048-054>057-064-065-302300-
CENTRAL INDIANA

CITY           SKY/WX    TMP DP  RH WIND       PRES   REMARKS
CP ATTERBURY + CLEAR     32  18  55 NW6       30.46S WCI  26
COLUMBUS       PTCLDY    32  12  43 N6        30.46S WCI  26
FRANKFORT +    PTCLDY    30  20  66 N6        30.46F WCI  24
GREENWOOD *+   FAIR      32  12  43 NW5       30.45S WCI  27
INDIANAPOLIS   PTCLDY    29  15  56 NW8       30.45S WCI  21
-EAGLE CREEK   PTCLDY    30  17  58 N9        30.45S WCI  22
KOKOMO *+      PTCLDY    30  18  59 N6        30.44F WCI  24
MARION +       CLOUDY    26  15  64 CALM      30.45F
MT COMFORT *+  CLEAR     30   7  37 NW8       30.45F WCI  23
SHELBYVILLE    FAIR      33  16  49 NW6       30.44F WCI  28
ZIONSVILLE +   CLOUDY    31  16  54 NW5       30.45S WCI  26

$$

INZ033-034-041-042-049-050-058-059-302300-
EAST CENTRAL INDIANA

CITY           SKY/WX    TMP DP  RH WIND       PRES   REMARKS
MUNCIE         MOCLDY    26  16  65 NW6       30.44F WCI  19

$$

INZ060-061-067>069-081>083-085>088-302300-
SOUTHWEST INDIANA

CITY           SKY/WX    TMP DP  RH WIND       PRES   REMARKS
EVANSVILLE     SUNNY     40  21  46 N6        30.48R
HUNTINGBURG *+ SUNNY     37  18  44 NW8       30.46F
WASHINGTON +   SUNNY     36  14  40 N5        30.46S

$$

INZ062-063-066-070>080-084-089>092-302300-
SOUTH CENTRAL AND SOUTHEAST INDIANA

CITY           SKY/WX    TMP DP  RH WIND       PRES   REMARKS
BLOOMINGTON    SUNNY     35  14  42 NE5       30.44S WCI  31
NORTH VERNON + CLEAR     32  18  55 N6        30.46S WCI  26
SEYMOUR +      CLEAR     36  18  48 N8        30.45F

$$




USA.gov is the U.S. government's official web portal to all federal, state and local government web resources and services.